Vorticity
8 4 4 5 6 10 11 9 8 9 12 16 16 11 6 5 4 1 0 3 5 5 4 4 5 4 2 3 4 4 4 -0 -2 1 6 9 9 11 8 2 2 4 2 3 5 7 9 13 15 18 17 8 3 6 6 6 9 7 5 8 11 10 6 5 5 6 6 6 6 6 6 7 7 8 6 5 6 7 8 7 6 6 6 8 10 10
12 8 5 4 4 6 8 8 8 8 9 12 17 17 10 7 7 4 1 2 3 2 3 4 6 6 4 3 3 5 5 2 -1 0 6 9 8 10 8 1 -1 1 3 4 5 7 8 11 14 18 22 15 5 5 6 6 7 8 7 7 9 10 8 5 4 6 6 5 6 6 6 7 8 8 6 6 6 6 7 6 5 5 6 8 10 9
11 13 10 5 3 4 6 7 7 7 8 8 12 15 13 8 7 7 5 3 4 4 2 2 4 8 9 6 3 6 8 4 2 4 6 8 9 9 8 3 1 2 4 5 4 4 6 8 10 13 20 20 10 4 5 6 5 7 8 6 8 10 9 6 3 5 5 5 6 7 6 7 7 8 6 6 6 6 6 6 5 5 6 8 10 9
8 12 15 11 4 2 5 6 6 7 7 5 7 13 14 12 7 7 6 2 3 5 5 4 4 5 8 9 5 5 8 5 4 6 5 7 9 8 6 2 2 3 1 2 4 2 4 7 9 10 14 20 15 6 5 7 6 7 7 6 7 8 9 7 3 3 5 4 6 7 7 7 7 7 6 6 5 6 6 6 6 6 7 8 9 9
5 7 13 14 8 4 4 4 4 7 7 5 5 9 14 15 11 8 7 5 4 5 6 7 8 8 7 8 6 4 7 7 5 5 4 6 9 6 3 2 4 5 -1 -2 2 2 3 5 7 8 11 16 17 9 6 7 6 8 7 5 7 8 7 7 4 3 4 3 5 7 6 6 7 6 5 5 5 5 6 6 6 7 8 8 9 9
5 5 8 13 12 8 4 3 4 4 6 7 6 5 9 15 14 11 10 7 6 5 4 4 10 12 8 10 11 6 8 8 4 4 4 5 7 5 3 5 8 8 2 0 3 3 4 6 6 8 12 16 17 10 6 6 5 7 8 6 7 8 6 6 5 3 3 4 5 7 7 6 7 6 6 7 6 6 6 6 6 7 9 9 10 10
6 5 5 7 12 13 6 2 3 3 5 8 7 4 5 11 13 14 13 9 8 7 2 3 9 11 7 11 14 8 8 10 4 2 4 4 5 6 5 5 6 7 4 0 5 7 4 6 8 11 16 19 19 13 6 6 6 6 8 7 6 7 6 5 5 5 4 3 5 7 8 8 8 6 5 6 6 6 6 5 6 7 9 10 10 10
7 7 6 4 7 13 12 6 3 2 3 6 9 6 3 7 11 13 14 12 10 7 6 8 9 7 7 9 13 9 6 9 7 3 4 3 3 4 5 5 3 5 6 1 4 10 5 3 5 9 14 17 19 17 8 4 6 6 7 8 7 7 6 5 5 6 5 4 5 6 7 8 8 5 4 5 5 5 4 5 6 7 8 9 10 10
8 7 9 6 4 8 13 12 7 3 2 2 8 9 3 4 9 10 12 12 11 8 6 8 7 7 6 5 11 12 5 7 9 6 6 4 2 4 4 4 2 2 5 3 4 8 5 1 1 5 10 13 18 19 12 5 5 6 7 8 7 7 7 6 5 6 6 6 7 6 6 7 7 6 4 3 4 3 3 4 4 5 6 7 8 9
9 8 9 9 4 4 9 13 12 7 3 2 6 9 5 3 6 8 9 10 11 9 6 5 5 7 6 2 11 14 5 5 8 6 6 4 2 5 4 2 2 1 4 4 5 8 6 1 1 5 7 10 16 21 15 8 6 5 6 8 8 7 7 6 5 6 6 7 7 6 6 6 6 6 5 4 5 4 3 4 3 4 5 5 5 6
12 9 8 9 6 4 5 9 12 11 7 3 5 6 5 4 4 7 8 6 8 8 7 7 4 6 11 7 7 12 8 5 7 7 6 5 3 5 5 4 3 2 3 6 6 6 6 2 1 6 9 9 13 21 20 12 8 6 5 7 8 7 7 7 6 5 6 7 7 5 6 6 6 7 7 5 6 5 4 4 4 4 5 5 5 5
17 13 9 9 9 5 4 6 9 12 9 5 5 4 4 5 5 6 6 5 7 6 6 9 5 7 15 12 3 8 13 7 4 8 7 3 3 6 6 5 5 4 2 5 7 5 4 3 2 5 9 11 12 18 23 18 11 9 6 6 8 8 8 8 7 5 6 7 6 4 4 5 6 7 8 7 7 6 5 4 4 4 4 4 5 5
21 17 9 8 10 8 6 5 6 10 10 6 5 4 3 3 5 6 6 6 7 6 5 9 9 5 7 11 8 5 10 8 3 8 10 4 2 5 7 5 5 6 4 4 7 5 3 2 2 5 7 10 13 15 21 22 16 12 8 6 8 9 9 9 8 6 5 6 6 4 3 4 5 8 8 7 7 6 5 5 4 5 4 3 4 4
27 23 13 7 10 10 6 5 5 7 10 8 6 5 3 3 5 5 5 7 7 5 4 6 9 7 3 9 14 8 5 8 7 7 8 7 4 3 6 7 5 7 6 5 6 4 3 2 2 5 6 7 10 12 15 19 19 16 11 7 7 9 10 9 9 6 5 5 5 4 3 3 5 8 8 7 7 5 5 6 5 5 4 3 4 4
25 27 24 12 9 12 8 6 7 5 9 11 8 7 4 2 6 8 7 7 6 5 6 6 6 7 5 7 15 16 11 10 9 8 6 6 7 5 5 6 6 7 6 5 6 5 3 3 2 5 7 4 6 11 12 14 17 17 14 9 7 9 10 10 9 8 5 4 4 4 3 3 4 7 8 7 7 6 4 6 6 5 5 4 4 5
18 23 30 19 11 13 7 6 9 5 7 10 8 8 7 3 2 6 9 7 5 5 7 8 6 5 5 4 7 15 19 17 10 7 7 5 5 6 6 6 6 6 6 4 3 4 3 3 3 4 6 4 3 8 11 13 17 18 15 11 7 8 10 10 10 8 7 5 4 4 5 5 4 6 7 6 6 6 5 6 7 5 5 4 5 7
16 21 32 22 12 15 9 6 10 7 6 10 11 8 4 6 6 3 6 8 6 6 6 7 6 4 5 4 2 5 14 20 16 9 10 9 5 5 7 7 6 5 5 4 2 1 2 3 3 2 4 5 4 7 11 11 14 18 17 12 7 7 9 10 10 8 7 5 4 3 4 6 7 6 6 5 5 6 6 7 7 5 5 4 5 8
10 20 31 21 11 20 18 8 9 10 3 3 20 25 7 -0 8 7 6 9 8 5 3 5 7 4 6 7 5 6 10 17 18 12 11 14 8 4 6 6 7 6 5 5 3 1 1 2 2 1 3 5 4 5 10 11 11 16 19 15 8 6 8 9 10 9 7 6 5 4 4 6 8 8 6 5 5 6 7 7 6 5 5 4 7 9
6 15 27 18 12 24 24 11 11 16 5 -11 4 33 26 5 3 5 4 7 9 7 1 2 9 7 5 8 6 7 13 16 17 13 12 17 12 5 6 7 6 7 7 6 4 2 2 2 2 1 2 5 5 4 7 10 11 13 18 18 12 6 6 8 9 8 7 6 5 4 5 6 8 7 6 6 6 6 7 7 6 6 5 5 8 9
7 8 20 16 13 21 21 17 16 16 12 -5 -17 3 22 19 15 12 9 6 5 9 3 1 11 11 2 4 6 6 10 12 12 11 12 17 16 9 8 8 7 7 7 6 5 4 3 3 2 1 2 4 5 5 5 7 10 12 15 18 16 10 6 8 9 8 6 6 5 5 5 7 7 6 5 6 7 6 7 7 6 6 6 7 9 9
18 9 13 14 14 17 16 22 24 14 14 15 1 -11 -4 11 22 22 18 11 5 7 6 0 7 14 8 6 6 5 7 10 11 11 12 16 16 11 10 10 10 10 8 7 6 4 5 6 3 1 1 2 3 3 4 5 7 10 14 17 18 14 8 7 11 10 7 5 5 5 5 6 6 5 4 6 6 6 7 7 7 6 7 8 9 9
28 15 8 9 14 14 14 24 30 20 15 24 25 6 -11 -3 15 24 22 13 3 3 7 4 3 10 15 10 5 5 6 10 15 14 12 15 16 11 8 8 10 12 11 9 7 6 6 8 6 2 1 1 2 3 4 5 4 6 12 17 18 17 12 8 9 12 10 7 5 4 5 7 6 4 4 5 5 6 6 6 6 6 7 7 9 9
32 25 11 10 13 10 10 17 21 14 7 12 19 9 -3 -5 0 17 30 22 10 3 -0 2 3 7 16 9 0 8 10 6 13 19 14 12 16 14 7 6 10 13 12 9 9 9 7 8 9 6 3 3 4 5 4 4 4 5 9 14 17 19 16 10 8 11 11 8 6 4 4 6 5 3 3 4 5 5 6 6 6 6 7 7 8 8
25 31 19 12 13 9 9 17 24 22 15 12 12 5 4 2 -4 9 25 21 17 12 2 5 6 2 11 11 -3 2 13 10 10 19 19 11 13 15 8 7 13 15 12 9 8 9 8 8 9 7 6 6 5 4 3 4 5 4 5 10 15 19 19 14 9 9 12 11 8 5 5 5 5 4 3 4 5 5 5 6 6 6 8 8 8 8
14 28 24 13 12 9 7 17 25 29 28 18 10 9 7 0 -2 10 16 8 10 8 0 15 29 18 7 4 -1 0 8 12 13 17 20 17 14 12 8 11 16 14 10 8 6 7 8 8 7 7 9 10 7 5 4 4 4 3 4 6 12 17 19 18 12 8 10 12 10 7 5 5 5 4 3 4 5 5 5 5 6 6 8 10 9 7
7 21 25 15 12 7 5 17 20 20 31 25 9 12 14 -1 -4 7 11 9 10 1 -18 -13 22 51 39 5 -5 4 7 9 15 18 17 16 13 9 10 14 15 12 8 6 4 3 4 4 5 7 11 13 10 6 4 5 3 3 4 5 9 14 17 20 16 10 9 12 12 10 6 6 5 3 4 4 4 5 4 4 5 6 8 11 10 7
3 14 25 19 15 8 0 15 23 16 24 28 10 7 12 6 0 3 6 8 9 11 -2 -28 -26 20 48 23 -5 0 11 9 12 18 17 14 11 8 12 15 12 9 7 4 4 4 4 5 5 7 12 14 12 8 5 5 4 3 3 4 7 11 15 20 18 11 8 10 13 12 8 6 5 3 4 5 4 5 5 4 5 4 8 12 9 6
6 8 21 22 18 10 -4 5 26 25 19 19 14 8 7 7 3 3 8 7 2 8 10 -5 -23 -19 8 22 4 -3 11 13 9 17 20 15 11 8 10 13 10 7 4 1 2 2 2 4 4 5 10 12 13 10 5 4 4 4 4 3 5 9 13 19 20 13 8 9 12 14 11 8 6 4 4 5 5 5 5 5 5 4 7 11 10 6
18 8 16 24 19 12 1 -3 11 26 25 20 20 18 12 10 6 4 7 6 7 9 -3 -5 12 8 -2 8 6 -2 9 12 6 14 19 14 12 10 8 9 8 5 3 1 2 3 3 5 4 4 6 9 12 12 9 6 4 2 2 1 2 7 10 16 21 15 8 8 11 13 13 10 6 5 4 5 6 6 5 5 5 4 6 10 11 7
26 15 13 22 19 11 8 3 1 13 23 25 26 23 15 13 11 8 9 4 6 13 -4 -18 5 21 12 11 9 1 8 12 6 12 20 17 13 11 7 6 6 4 4 3 4 4 4 3 3 4 5 6 10 14 13 10 6 3 3 2 2 6 9 14 20 17 9 7 10 12 13 11 8 6 5 4 5 5 6 6 6 6 6 8 11 8
25 21 13 19 23 13 6 9 9 10 18 22 24 24 20 16 12 9 11 10 6 10 5 -11 -8 7 10 11 12 5 6 12 8 9 19 20 14 11 8 5 5 5 4 3 3 3 2 2 3 3 3 4 7 13 17 14 8 5 4 3 4 6 8 12 18 18 12 7 8 10 12 12 9 7 6 5 4 5 5 6 6 7 7 7 9 9
27 29 20 17 23 17 5 7 12 15 20 22 20 21 22 17 12 12 12 11 13 16 14 5 2 5 3 2 8 7 3 9 9 8 16 21 15 12 9 5 5 6 5 3 1 1 2 4 5 3 1 3 3 7 15 17 11 7 6 7 7 6 7 11 15 18 14 9 7 8 10 11 11 9 8 6 5 4 5 6 7 8 9 9 9 9
22 29 27 23 22 16 8 7 13 18 22 23 19 16 20 19 12 12 10 6 9 14 14 17 21 16 4 -1 8 8 0 5 11 8 11 20 19 14 10 8 6 3 3 3 1 3 5 5 7 6 2 2 1 4 13 17 13 8 7 8 9 6 6 10 13 14 14 12 9 7 7 9 10 10 11 9 7 6 5 5 6 8 10 10 10 10
17 24 26 28 24 16 12 7 9 19 25 29 29 17 13 19 19 11 4 0 5 6 3 12 29 28 9 -4 4 10 1 3 14 11 8 15 21 17 11 8 8 5 3 3 3 6 8 4 6 10 6 2 4 8 14 16 13 9 7 7 9 7 6 8 10 11 12 14 12 9 7 7 8 9 10 11 10 9 7 6 6 9 10 10 11 11
17 22 24 28 24 15 15 10 5 13 20 29 38 25 9 14 20 14 7 -0 2 9 3 -2 13 30 22 2 1 8 1 -0 14 16 10 13 18 20 16 10 7 7 5 4 6 7 5 2 3 9 10 8 9 11 12 12 11 8 6 6 8 7 5 7 9 9 10 12 12 11 10 8 8 8 9 10 11 10 9 7 6 8 10 9 10 11
15 18 20 26 25 15 15 15 10 13 17 25 35 27 15 18 15 5 6 6 2 7 11 1 -1 15 22 9 1 5 1 -0 12 17 13 15 16 17 19 14 7 7 4 3 5 4 2 3 3 7 12 11 9 9 9 10 8 6 5 6 6 6 6 7 8 8 9 10 11 12 12 11 11 10 10 11 11 10 9 7 6 7 10 10 9 10
15 17 17 20 21 17 16 15 11 13 19 27 32 21 13 23 23 7 5 10 5 3 10 9 2 4 11 7 1 5 6 5 10 13 13 17 15 14 18 18 12 9 6 2 2 3 4 6 4 4 8 9 7 6 7 10 8 5 4 4 4 4 4 6 9 9 8 9 10 12 12 12 12 11 11 12 12 11 8 6 6 6 8 10 10 11
6 14 20 18 16 18 18 15 11 11 19 26 30 24 12 12 19 19 14 12 9 7 11 13 10 6 6 5 2 5 9 6 4 7 11 15 17 15 16 17 15 13 11 7 4 4 5 7 6 4 4 6 8 5 4 8 8 4 2 2 1 1 2 5 9 10 9 9 9 11 13 15 14 11 11 12 12 11 9 7 7 7 9 12 12 13
3 13 20 15 15 17 17 17 11 8 19 27 25 26 25 14 7 10 14 14 12 12 13 14 14 10 6 4 3 5 9 7 2 4 9 13 17 17 15 15 17 15 12 10 10 12 12 11 12 11 6 5 7 5 3 7 7 3 1 1 -0 0 3 7 10 10 9 9 9 10 12 15 15 12 10 11 11 10 10 9 8 8 9 12 14 16
4 13 19 13 14 16 13 16 13 6 19 30 19 17 30 29 15 6 8 13 12 13 17 16 13 12 7 3 3 4 8 9 5 4 10 14 15 16 15 14 15 16 17 20 24 28 26 21 20 18 12 9 7 5 7 10 6 1 1 1 1 2 5 9 10 11 11 10 9 10 12 14 16 14 11 11 10 10 10 9 8 9 12 15 17 16
8 9 16 14 16 18 12 13 13 9 23 32 18 11 26 33 26 14 10 9 6 8 20 21 12 9 8 5 5 6 7 7 4 3 10 15 15 14 15 16 17 21 26 26 24 23 21 21 23 22 17 16 12 7 9 12 6 1 3 4 3 3 6 9 11 12 12 9 9 12 13 13 16 16 13 11 10 10 10 10 11 14 16 17 15 12
15 10 16 19 19 17 14 16 13 11 27 36 16 1 14 32 34 21 8 7 8 6 14 22 16 7 7 8 6 6 7 6 4 3 6 10 13 13 12 12 14 14 12 11 13 14 12 15 22 22 19 20 18 11 10 12 5 1 5 7 5 4 7 11 13 13 11 9 11 13 14 14 15 17 16 14 13 12 13 13 15 16 16 13 11 9
26 22 25 28 25 17 13 16 14 14 30 39 14 -16 -11 21 44 37 9 -1 11 16 12 17 18 8 6 10 9 6 7 9 8 5 4 8 13 10 5 6 7 4 1 4 13 16 14 15 18 18 20 23 21 14 12 10 3 0 4 7 5 5 9 12 13 11 9 10 13 15 15 15 16 16 15 15 14 14 14 14 14 13 10 8 8 9
29 23 23 25 20 15 12 9 11 20 34 37 14 -16 -16 8 36 48 27 -5 -1 19 18 14 16 12 7 10 11 8 6 9 12 7 3 9 14 6 0 3 4 3 3 5 9 12 15 19 19 16 21 27 24 18 15 8 2 4 9 10 8 7 10 11 10 9 10 12 14 15 16 15 15 14 14 13 12 12 13 12 11 10 9 9 9 10
11 7 14 20 13 11 11 6 10 22 31 34 19 -4 -2 10 18 37 42 11 -9 9 22 17 13 13 12 11 10 10 7 7 12 9 3 9 11 2 -1 3 5 6 6 3 6 11 13 18 19 16 20 26 24 20 15 6 2 7 10 10 10 9 10 10 8 9 13 14 15 16 17 15 13 12 11 11 10 10 11 11 12 12 11 12 12 12
5 2 12 22 18 13 7 2 7 14 17 30 28 4 1 16 15 19 37 28 2 2 18 19 12 12 17 14 8 10 10 7 9 10 6 6 7 0 -0 4 6 8 6 1 5 13 14 16 17 15 18 24 22 17 12 3 1 6 7 7 9 10 9 8 7 9 14 15 14 14 15 14 12 10 9 9 8 8 9 10 11 11 10 10 11 10
4 3 10 19 17 13 9 5 12 16 13 23 31 13 -0 13 20 15 24 29 16 7 14 17 12 11 19 19 10 8 11 9 8 10 9 6 3 0 2 8 11 10 5 1 3 10 15 18 18 17 20 21 13 6 4 2 3 6 6 5 7 7 5 4 4 6 11 11 10 11 12 13 14 12 10 10 9 8 11 12 9 8 8 9 8 7
6 6 13 18 14 10 12 12 13 19 19 19 24 19 6 7 17 21 21 19 14 13 17 17 12 9 14 23 19 8 9 12 8 9 12 8 1 0 4 11 15 10 1 0 3 6 11 19 22 21 19 14 5 -1 1 4 5 6 5 5 7 7 4 4 4 6 9 9 7 8 11 13 15 14 11 12 12 11 13 12 8 6 6 6 7 9
20 15 8 12 16 12 14 17 11 12 17 15 14 16 14 10 11 19 28 20 5 7 18 20 15 7 6 21 27 12 6 14 11 8 14 11 1 2 8 11 13 8 1 1 4 4 5 13 23 25 16 7 5 5 4 4 4 4 4 4 6 7 4 3 6 9 9 7 6 7 9 11 12 13 13 12 12 10 9 8 7 7 6 5 5 5
32 29 8 6 18 16 15 21 15 7 8 10 9 11 16 17 10 10 27 30 9 1 12 21 20 10 1 16 32 17 3 13 14 8 14 14 2 1 9 11 9 6 4 3 3 4 4 6 15 23 17 8 6 6 4 4 3 3 6 5 6 9 8 5 7 11 10 7 5 6 8 9 10 11 12 11 9 6 6 7 8 7 6 6 5 3
24 29 15 9 16 14 12 19 22 15 9 8 11 16 17 20 15 6 16 30 21 7 10 17 18 11 3 16 33 20 3 10 17 12 12 12 4 3 8 10 7 4 4 4 1 2 6 6 9 17 17 9 7 6 5 5 4 5 7 4 3 10 13 10 9 11 10 7 5 5 6 7 7 8 9 7 6 6 4 5 6 7 6 4 2 1
Height
5838 5840 5843 5849 5853 5856 5857 5858 5860 5859 5862 5866 5869 5871 5872 5874 5876 5877 5878 5880 5883 5884 5885 5887 5889 5890 5890 5890 5892 5893 5894 5895 5896 5898 5900 5902 5903 5904 5904 5905 5905 5905 5906 5907 5909 5910 5910 5911 5912 5913 5914 5916 5917 5918 5919 5920 5921 5923 5924 5925 5927 5928 5930 5931 5932 5934 5935 5935 5936 5937 5938 5939 5940 5941 5942 5943 5944 5944 5945 5945 5946 5946 5946 5947 5948 5948
5833 5835 5841 5848 5850 5850 5851 5853 5854 5855 5859 5862 5863 5866 5868 5870 5873 5874 5873 5875 5879 5881 5882 5884 5886 5888 5888 5889 5890 5891 5892 5893 5895 5897 5899 5900 5902 5903 5903 5903 5903 5903 5905 5907 5908 5909 5910 5911 5912 5913 5914 5915 5916 5917 5918 5919 5920 5922 5923 5925 5926 5928 5929 5931 5932 5933 5934 5935 5936 5937 5938 5939 5940 5941 5942 5943 5944 5945 5945 5946 5946 5947 5946 5947 5948 5949
5829 5832 5839 5844 5844 5845 5847 5849 5850 5852 5855 5857 5858 5861 5863 5865 5868 5869 5870 5872 5875 5878 5880 5881 5883 5886 5886 5887 5887 5888 5891 5892 5893 5895 5896 5898 5899 5901 5902 5902 5902 5903 5904 5906 5907 5908 5908 5909 5910 5912 5913 5914 5915 5916 5917 5918 5919 5921 5922 5924 5926 5927 5928 5930 5931 5932 5933 5934 5935 5937 5938 5939 5941 5942 5943 5944 5945 5945 5946 5946 5946 5947 5947 5947 5948 5949
5825 5829 5836 5838 5838 5840 5843 5844 5846 5847 5850 5852 5854 5857 5860 5862 5863 5867 5868 5868 5870 5873 5876 5877 5879 5882 5883 5883 5884 5886 5889 5890 5891 5893 5894 5895 5898 5900 5900 5900 5901 5902 5903 5904 5905 5906 5907 5908 5909 5910 5911 5912 5914 5916 5917 5918 5919 5921 5922 5923 5925 5926 5927 5929 5930 5932 5933 5934 5936 5937 5939 5940 5942 5943 5944 5944 5945 5945 5946 5946 5947 5947 5947 5947 5948 5950
5821 5824 5831 5832 5831 5835 5839 5840 5841 5843 5846 5849 5851 5854 5858 5859 5860 5864 5863 5862 5866 5868 5870 5873 5874 5877 5879 5881 5882 5885 5887 5888 5889 5890 5891 5894 5897 5897 5898 5899 5901 5901 5902 5902 5903 5904 5906 5907 5908 5909 5910 5911 5913 5914 5916 5917 5919 5920 5921 5922 5923 5924 5926 5928 5929 5931 5933 5935 5936 5938 5940 5941 5942 5944 5944 5945 5945 5945 5946 5947 5947 5948 5948 5948 5949 5950
5815 5818 5825 5825 5824 5831 5834 5835 5837 5839 5842 5845 5848 5851 5855 5856 5857 5859 5857 5858 5863 5864 5866 5870 5868 5872 5876 5878 5880 5882 5884 5885 5887 5888 5890 5893 5894 5895 5897 5899 5901 5901 5901 5902 5902 5903 5904 5905 5906 5907 5908 5909 5911 5912 5914 5916 5917 5918 5919 5921 5922 5923 5925 5927 5928 5931 5933 5935 5937 5938 5940 5941 5942 5943 5943 5944 5945 5946 5947 5947 5948 5949 5949 5949 5950 5951
5809 5813 5819 5819 5819 5826 5827 5828 5832 5834 5837 5840 5844 5848 5850 5850 5852 5854 5855 5856 5859 5860 5863 5863 5862 5868 5872 5874 5877 5879 5880 5883 5884 5886 5888 5890 5891 5893 5896 5898 5900 5901 5901 5901 5902 5903 5904 5905 5905 5906 5907 5908 5909 5910 5912 5914 5916 5917 5919 5920 5921 5922 5924 5926 5928 5930 5932 5934 5936 5938 5939 5940 5941 5942 5942 5943 5945 5946 5947 5948 5949 5950 5950 5951 5951 5952
5802 5807 5814 5814 5814 5819 5821 5823 5828 5830 5832 5836 5840 5842 5843 5845 5848 5850 5851 5851 5853 5857 5857 5854 5856 5863 5866 5868 5873 5874 5876 5879 5881 5883 5886 5887 5888 5891 5894 5896 5898 5900 5900 5901 5902 5903 5903 5904 5904 5905 5905 5906 5907 5908 5910 5912 5914 5916 5918 5919 5920 5922 5923 5925 5927 5930 5932 5934 5935 5937 5938 5940 5941 5941 5942 5944 5945 5947 5948 5949 5950 5951 5951 5952 5952 5953
5795 5801 5808 5809 5808 5813 5817 5820 5823 5826 5828 5833 5835 5834 5837 5841 5843 5845 5845 5845 5848 5849 5848 5849 5853 5857 5860 5865 5869 5870 5872 5875 5878 5880 5883 5885 5887 5889 5891 5893 5896 5898 5899 5900 5901 5902 5902 5902 5902 5902 5903 5904 5905 5906 5908 5910 5912 5914 5916 5918 5919 5921 5923 5925 5927 5929 5931 5932 5934 5935 5937 5938 5940 5941 5942 5944 5946 5947 5948 5949 5950 5951 5952 5952 5953 5953
5787 5795 5801 5801 5801 5806 5811 5814 5817 5821 5824 5829 5829 5829 5834 5837 5838 5839 5839 5841 5842 5840 5842 5846 5849 5851 5856 5861 5864 5866 5869 5872 5876 5879 5881 5883 5885 5887 5889 5891 5893 5895 5897 5898 5900 5901 5900 5900 5900 5900 5901 5903 5904 5905 5906 5908 5910 5912 5915 5917 5919 5920 5922 5924 5926 5928 5930 5932 5933 5935 5936 5937 5939 5941 5942 5944 5946 5947 5948 5949 5950 5951 5952 5953 5953 5954
5781 5787 5792 5794 5794 5799 5805 5807 5811 5815 5819 5824 5823 5825 5830 5831 5832 5833 5834 5837 5835 5832 5837 5843 5845 5846 5850 5856 5860 5862 5866 5870 5873 5876 5879 5881 5883 5884 5886 5888 5890 5892 5895 5897 5898 5899 5899 5899 5899 5899 5901 5902 5903 5904 5905 5907 5908 5911 5913 5915 5918 5919 5921 5923 5925 5927 5929 5931 5932 5934 5935 5937 5938 5940 5942 5944 5945 5946 5948 5949 5950 5951 5952 5953 5954 5954
5774 5779 5786 5790 5789 5792 5798 5801 5805 5808 5813 5817 5817 5819 5824 5825 5826 5826 5829 5830 5827 5827 5835 5841 5843 5841 5843 5852 5857 5859 5863 5866 5868 5872 5876 5879 5880 5883 5884 5886 5887 5890 5893 5895 5896 5897 5897 5897 5899 5900 5901 5902 5902 5904 5905 5906 5908 5909 5912 5914 5916 5918 5921 5923 5924 5926 5928 5930 5932 5933 5934 5936 5938 5940 5941 5943 5945 5946 5947 5948 5949 5951 5952 5953 5953 5954
5767 5773 5781 5783 5781 5783 5790 5795 5799 5801 5807 5810 5810 5813 5817 5819 5819 5820 5823 5824 5823 5827 5834 5840 5841 5837 5838 5850 5854 5855 5858 5861 5864 5870 5874 5875 5877 5880 5882 5883 5885 5887 5890 5892 5894 5895 5895 5896 5898 5900 5900 5901 5902 5903 5904 5905 5907 5909 5911 5913 5915 5917 5920 5922 5924 5925 5927 5929 5931 5932 5933 5935 5937 5939 5940 5942 5943 5945 5946 5948 5949 5950 5951 5952 5953 5954
5762 5766 5771 5774 5774 5776 5783 5790 5793 5796 5802 5804 5804 5807 5811 5812 5813 5814 5818 5822 5824 5827 5831 5838 5838 5831 5834 5845 5849 5850 5853 5857 5862 5867 5869 5871 5873 5876 5879 5880 5882 5885 5887 5890 5891 5893 5894 5895 5897 5899 5900 5900 5901 5901 5902 5904 5906 5908 5910 5912 5914 5916 5918 5920 5922 5924 5926 5927 5929 5930 5932 5934 5936 5938 5939 5941 5942 5944 5946 5947 5948 5950 5951 5952 5952 5953
5756 5759 5763 5766 5767 5770 5777 5785 5788 5791 5796 5797 5799 5802 5805 5807 5809 5813 5817 5821 5823 5825 5827 5832 5831 5827 5831 5839 5844 5848 5852 5857 5861 5863 5865 5867 5870 5873 5876 5877 5879 5881 5884 5887 5889 5891 5893 5894 5896 5897 5899 5899 5899 5900 5901 5902 5904 5906 5909 5911 5913 5915 5917 5919 5921 5923 5925 5926 5927 5929 5931 5933 5935 5936 5938 5939 5941 5943 5944 5946 5947 5949 5950 5951 5952 5953
5750 5753 5754 5757 5760 5764 5771 5778 5781 5783 5787 5791 5793 5795 5798 5803 5807 5811 5814 5818 5821 5821 5821 5824 5826 5826 5829 5833 5840 5847 5852 5856 5859 5860 5862 5865 5867 5870 5872 5874 5876 5879 5882 5884 5887 5889 5891 5893 5894 5896 5898 5898 5899 5899 5900 5901 5903 5905 5907 5909 5911 5913 5915 5917 5919 5921 5923 5925 5926 5928 5930 5931 5933 5935 5937 5938 5940 5942 5943 5945 5946 5948 5949 5950 5951 5953
5743 5745 5747 5751 5756 5759 5763 5768 5772 5776 5782 5786 5786 5788 5795 5802 5804 5806 5809 5814 5817 5816 5815 5818 5821 5824 5826 5830 5837 5845 5850 5854 5856 5858 5860 5863 5865 5867 5869 5872 5874 5877 5881 5883 5886 5888 5890 5891 5893 5895 5897 5898 5898 5899 5900 5901 5902 5903 5905 5906 5908 5910 5913 5915 5917 5919 5921 5923 5925 5927 5929 5930 5932 5934 5935 5937 5938 5940 5942 5943 5945 5946 5948 5949 5951 5952
5736 5739 5742 5747 5749 5750 5753 5759 5765 5770 5776 5779 5780 5786 5794 5796 5797 5799 5803 5808 5811 5811 5812 5814 5816 5821 5824 5828 5835 5841 5846 5851 5853 5856 5857 5860 5862 5863 5866 5870 5872 5876 5879 5881 5884 5886 5888 5889 5891 5893 5895 5896 5897 5899 5899 5899 5900 5902 5903 5904 5906 5908 5911 5913 5915 5917 5919 5921 5923 5925 5927 5929 5931 5932 5933 5935 5936 5938 5940 5942 5944 5945 5947 5948 5950 5951
5730 5734 5737 5740 5740 5741 5746 5752 5758 5763 5769 5773 5776 5782 5786 5787 5789 5792 5795 5801 5805 5806 5808 5809 5811 5816 5820 5825 5831 5836 5841 5847 5850 5852 5854 5857 5859 5861 5864 5867 5870 5873 5876 5879 5881 5883 5885 5887 5889 5891 5892 5894 5896 5897 5898 5898 5899 5900 5902 5903 5905 5907 5908 5909 5911 5913 5916 5919 5921 5924 5926 5928 5929 5930 5932 5933 5935 5937 5939 5941 5942 5944 5946 5947 5949 5950
5724 5727 5730 5733 5733 5734 5739 5743 5749 5756 5762 5766 5769 5773 5776 5779 5783 5787 5790 5796 5801 5803 5805 5806 5807 5811 5817 5823 5829 5832 5838 5844 5847 5849 5851 5855 5857 5858 5861 5864 5867 5871 5873 5876 5879 5880 5883 5886 5887 5889 5891 5892 5894 5895 5896 5897 5898 5899 5900 5901 5903 5905 5906 5907 5909 5911 5914 5916 5919 5922 5924 5926 5928 5929 5930 5932 5934 5936 5937 5939 5941 5943 5944 5946 5948 5949
5716 5719 5722 5726 5726 5726 5731 5737 5744 5752 5757 5761 5763 5765 5768 5772 5778 5782 5785 5791 5797 5799 5801 5802 5804 5809 5814 5820 5826 5829 5835 5840 5842 5846 5849 5851 5853 5854 5858 5861 5864 5867 5870 5873 5876 5878 5881 5883 5885 5887 5888 5890 5891 5892 5894 5896 5897 5898 5899 5900 5902 5903 5905 5907 5909 5911 5912 5915 5917 5920 5922 5924 5926 5927 5929 5931 5932 5934 5936 5937 5939 5941 5943 5945 5947 5948
5706 5710 5714 5718 5718 5720 5727 5733 5739 5745 5749 5753 5756 5759 5763 5768 5772 5775 5778 5785 5791 5793 5796 5797 5801 5805 5808 5815 5822 5826 5831 5835 5837 5841 5844 5846 5849 5851 5854 5857 5860 5864 5867 5870 5873 5875 5878 5880 5883 5885 5886 5886 5888 5890 5892 5894 5895 5896 5898 5899 5900 5902 5904 5906 5908 5909 5911 5913 5916 5918 5920 5922 5924 5925 5927 5929 5931 5932 5934 5936 5938 5939 5941 5944 5945 5946
5699 5704 5707 5711 5713 5716 5722 5725 5728 5732 5737 5741 5746 5753 5758 5762 5766 5770 5775 5781 5785 5788 5791 5792 5794 5799 5803 5810 5819 5823 5827 5831 5833 5836 5839 5842 5845 5847 5851 5854 5856 5860 5864 5867 5870 5872 5875 5877 5880 5881 5883 5884 5886 5888 5890 5891 5893 5895 5897 5898 5899 5900 5902 5904 5906 5908 5909 5911 5914 5916 5918 5920 5922 5924 5926 5927 5929 5931 5932 5934 5936 5938 5940 5942 5943 5945
5693 5697 5701 5705 5709 5712 5716 5719 5721 5726 5730 5735 5741 5747 5751 5755 5761 5766 5769 5774 5778 5782 5787 5787 5788 5795 5800 5808 5817 5821 5824 5827 5830 5833 5836 5838 5840 5844 5848 5851 5854 5858 5861 5864 5867 5869 5871 5873 5875 5877 5879 5881 5883 5885 5887 5889 5891 5892 5894 5895 5897 5899 5900 5902 5903 5905 5907 5910 5912 5913 5915 5918 5920 5922 5924 5926 5928 5929 5930 5932 5934 5936 5938 5939 5941 5943
5687 5691 5693 5698 5703 5706 5710 5713 5716 5719 5723 5729 5736 5741 5745 5749 5753 5756 5760 5765 5770 5775 5781 5782 5785 5791 5797 5805 5814 5819 5821 5824 5827 5830 5832 5834 5837 5839 5842 5846 5850 5854 5857 5860 5863 5865 5867 5869 5871 5874 5877 5879 5881 5883 5885 5887 5888 5890 5891 5893 5895 5897 5898 5899 5901 5903 5905 5907 5909 5911 5913 5916 5918 5921 5923 5925 5926 5927 5928 5930 5932 5934 5936 5937 5939 5941
5680 5683 5686 5690 5694 5700 5704 5706 5708 5712 5716 5723 5730 5735 5738 5741 5744 5748 5755 5759 5764 5770 5775 5777 5782 5788 5793 5801 5810 5814 5817 5820 5822 5824 5826 5830 5833 5836 5839 5842 5846 5850 5853 5856 5859 5861 5863 5864 5867 5871 5874 5877 5879 5881 5883 5884 5886 5887 5889 5891 5893 5894 5895 5897 5899 5901 5903 5904 5906 5909 5912 5914 5917 5919 5921 5923 5924 5926 5927 5928 5930 5932 5934 5936 5937 5939
5672 5675 5679 5683 5687 5693 5698 5698 5700 5704 5708 5714 5720 5722 5727 5732 5737 5743 5747 5751 5758 5765 5769 5772 5778 5784 5789 5796 5804 5809 5811 5813 5816 5820 5822 5825 5829 5833 5837 5840 5843 5847 5850 5853 5855 5857 5859 5861 5863 5867 5871 5874 5876 5878 5881 5882 5883 5885 5887 5888 5890 5892 5893 5894 5896 5898 5900 5902 5904 5907 5910 5912 5915 5917 5919 5921 5922 5924 5925 5927 5928 5930 5932 5934 5935 5937
5664 5669 5674 5676 5680 5687 5690 5692 5694 5697 5701 5706 5709 5711 5716 5723 5730 5736 5740 5746 5754 5758 5762 5768 5773 5777 5783 5791 5798 5803 5806 5809 5813 5817 5818 5821 5824 5828 5832 5835 5839 5843 5846 5848 5851 5853 5856 5858 5861 5863 5867 5870 5872 5875 5877 5879 5881 5883 5884 5886 5888 5889 5891 5892 5894 5896 5898 5899 5902 5905 5908 5910 5912 5915 5916 5918 5920 5922 5924 5926 5927 5928 5930 5932 5934 5935
5658 5663 5667 5669 5674 5679 5682 5685 5687 5690 5695 5699 5703 5707 5712 5718 5725 5729 5734 5741 5747 5751 5757 5764 5766 5771 5780 5788 5793 5798 5801 5804 5808 5812 5814 5816 5820 5823 5827 5831 5834 5837 5840 5843 5847 5850 5853 5855 5858 5861 5863 5865 5868 5871 5874 5876 5878 5880 5881 5883 5885 5887 5889 5890 5892 5894 5896 5898 5900 5903 5905 5907 5909 5911 5913 5915 5918 5920 5922 5924 5925 5926 5928 5930 5932 5933
5651 5656 5660 5662 5666 5671 5675 5679 5682 5685 5690 5693 5697 5703 5708 5714 5720 5724 5728 5735 5741 5746 5753 5758 5759 5766 5776 5783 5789 5794 5797 5800 5804 5807 5810 5813 5816 5819 5823 5826 5829 5832 5835 5839 5842 5846 5849 5852 5855 5858 5860 5862 5864 5867 5870 5873 5875 5877 5879 5881 5883 5885 5887 5888 5890 5892 5894 5896 5898 5900 5902 5904 5906 5908 5910 5913 5915 5917 5919 5921 5923 5925 5926 5928 5930 5931
5646 5650 5653 5656 5659 5664 5670 5674 5677 5681 5685 5688 5692 5696 5701 5707 5714 5719 5723 5730 5735 5740 5746 5751 5753 5760 5770 5778 5785 5791 5794 5796 5800 5803 5807 5809 5812 5815 5818 5821 5825 5828 5831 5834 5838 5841 5845 5848 5851 5854 5856 5858 5861 5864 5867 5870 5872 5875 5877 5879 5881 5883 5884 5886 5889 5891 5892 5894 5896 5897 5899 5901 5903 5905 5908 5910 5912 5914 5916 5918 5920 5923 5924 5926 5928 5929
5642 5645 5647 5650 5653 5659 5665 5670 5673 5677 5680 5681 5685 5690 5695 5701 5708 5712 5717 5725 5731 5735 5740 5746 5748 5754 5767 5776 5781 5786 5790 5791 5794 5798 5802 5806 5808 5811 5815 5818 5822 5824 5827 5830 5833 5837 5841 5844 5847 5850 5853 5856 5859 5862 5865 5867 5869 5871 5874 5877 5879 5881 5882 5884 5886 5888 5890 5892 5894 5895 5897 5899 5901 5903 5905 5908 5910 5912 5913 5915 5918 5920 5922 5924 5926 5927
5637 5639 5642 5645 5648 5654 5660 5665 5670 5673 5673 5674 5679 5686 5692 5697 5702 5706 5713 5721 5727 5730 5735 5741 5743 5750 5765 5774 5777 5781 5785 5787 5789 5793 5798 5802 5806 5809 5812 5815 5819 5821 5824 5827 5830 5834 5837 5840 5842 5846 5850 5853 5856 5859 5863 5865 5867 5869 5872 5875 5877 5878 5879 5882 5884 5886 5887 5889 5891 5893 5895 5897 5898 5901 5903 5905 5907 5909 5911 5913 5915 5918 5920 5921 5923 5925
5633 5635 5637 5640 5645 5650 5655 5660 5664 5666 5667 5672 5680 5686 5690 5695 5697 5702 5710 5718 5721 5724 5730 5736 5739 5748 5762 5770 5773 5777 5781 5783 5785 5788 5793 5799 5802 5806 5809 5812 5815 5818 5821 5824 5827 5830 5833 5836 5838 5842 5846 5850 5853 5857 5860 5862 5864 5867 5868 5870 5873 5875 5876 5879 5881 5882 5884 5887 5889 5891 5893 5894 5897 5899 5901 5903 5905 5906 5908 5911 5913 5915 5916 5918 5920 5922
5629 5631 5634 5638 5641 5645 5650 5654 5656 5659 5665 5672 5678 5683 5688 5690 5692 5698 5706 5712 5715 5718 5725 5730 5735 5744 5756 5764 5769 5773 5777 5779 5781 5783 5789 5795 5798 5802 5805 5808 5812 5815 5818 5821 5824 5827 5830 5832 5836 5840 5844 5847 5851 5854 5856 5858 5861 5862 5864 5867 5870 5872 5874 5876 5877 5879 5881 5884 5886 5888 5890 5892 5894 5896 5898 5900 5902 5904 5906 5908 5910 5912 5914 5915 5917 5919
5626 5628 5632 5635 5637 5640 5645 5648 5652 5658 5664 5669 5674 5680 5683 5684 5687 5693 5699 5704 5709 5714 5719 5724 5731 5742 5752 5759 5765 5770 5774 5776 5776 5779 5785 5790 5794 5798 5802 5805 5809 5812 5815 5818 5820 5824 5827 5830 5834 5838 5842 5845 5847 5849 5852 5855 5858 5859 5861 5864 5867 5869 5871 5873 5875 5877 5879 5881 5883 5885 5888 5890 5892 5894 5896 5897 5900 5902 5904 5906 5908 5910 5911 5912 5914 5916
5623 5626 5629 5631 5633 5637 5641 5645 5650 5656 5661 5664 5669 5674 5676 5678 5684 5690 5694 5699 5706 5711 5715 5720 5729 5740 5748 5754 5761 5766 5770 5772 5773 5775 5781 5786 5790 5794 5798 5802 5806 5809 5812 5814 5817 5820 5823 5827 5832 5836 5838 5841 5843 5846 5850 5853 5854 5856 5857 5860 5864 5866 5868 5870 5872 5874 5876 5878 5880 5883 5885 5887 5889 5891 5893 5895 5897 5900 5902 5904 5905 5907 5908 5909 5911 5913
5620 5623 5626 5628 5630 5634 5637 5642 5647 5652 5655 5659 5663 5667 5671 5675 5680 5686 5690 5696 5703 5707 5711 5717 5726 5735 5743 5750 5757 5762 5765 5768 5769 5771 5777 5783 5787 5790 5794 5798 5802 5806 5808 5811 5813 5817 5821 5826 5831 5834 5836 5838 5841 5844 5846 5849 5851 5852 5854 5858 5861 5863 5865 5868 5870 5872 5874 5876 5878 5880 5882 5884 5886 5888 5890 5892 5895 5897 5899 5901 5902 5903 5905 5907 5909 5911
5616 5619 5622 5625 5628 5631 5635 5639 5643 5648 5652 5655 5659 5664 5669 5673 5677 5683 5687 5691 5698 5704 5708 5715 5723 5731 5738 5746 5752 5757 5761 5764 5765 5768 5774 5780 5783 5787 5791 5795 5798 5802 5804 5807 5811 5815 5819 5823 5827 5830 5832 5835 5839 5841 5844 5847 5849 5850 5852 5855 5858 5861 5863 5865 5867 5870 5872 5874 5876 5878 5880 5881 5883 5885 5887 5890 5892 5894 5895 5897 5899 5900 5902 5904 5906 5908
5613 5616 5619 5622 5625 5629 5633 5636 5640 5645 5648 5651 5656 5662 5667 5671 5677 5682 5683 5687 5695 5701 5706 5712 5720 5727 5734 5742 5748 5752 5756 5760 5763 5767 5772 5776 5780 5784 5788 5791 5795 5798 5801 5805 5809 5812 5816 5818 5822 5826 5828 5832 5836 5838 5841 5845 5846 5847 5850 5853 5856 5858 5861 5863 5865 5867 5869 5871 5873 5875 5877 5879 5880 5882 5885 5887 5889 5890 5892 5894 5895 5897 5899 5901 5903 5905
5611 5614 5617 5620 5623 5627 5630 5633 5637 5642 5645 5648 5653 5659 5665 5670 5674 5676 5679 5686 5694 5699 5703 5710 5717 5723 5730 5738 5744 5748 5753 5757 5761 5765 5769 5773 5777 5781 5785 5788 5791 5795 5799 5803 5806 5809 5811 5814 5818 5821 5824 5828 5832 5835 5838 5841 5843 5844 5847 5851 5854 5856 5859 5860 5862 5864 5866 5868 5871 5873 5875 5876 5878 5880 5882 5883 5885 5887 5889 5890 5892 5894 5896 5898 5900 5902
5610 5612 5615 5618 5622 5625 5628 5631 5634 5638 5641 5646 5650 5655 5661 5665 5667 5669 5675 5683 5690 5695 5701 5707 5713 5718 5726 5734 5740 5745 5749 5754 5758 5762 5765 5770 5775 5778 5782 5785 5788 5792 5796 5799 5802 5805 5808 5811 5814 5817 5819 5823 5826 5830 5834 5838 5840 5842 5845 5849 5852 5854 5855 5856 5859 5861 5864 5866 5868 5870 5872 5873 5875 5877 5878 5880 5882 5884 5886 5888 5890 5892 5894 5895 5898 5900
5609 5612 5614 5617 5620 5623 5625 5627 5630 5634 5638 5643 5648 5651 5654 5657 5660 5665 5671 5678 5684 5691 5697 5703 5708 5714 5721 5729 5736 5741 5746 5750 5754 5759 5763 5768 5772 5776 5779 5783 5786 5789 5793 5795 5798 5802 5805 5807 5810 5813 5816 5819 5822 5825 5830 5834 5836 5839 5844 5848 5850 5851 5851 5854 5856 5859 5861 5863 5865 5867 5869 5871 5872 5874 5876 5877 5879 5881 5883 5885 5887 5889 5891 5893 5895 5897
5610 5612 5615 5617 5620 5622 5623 5625 5627 5632 5636 5640 5644 5646 5649 5652 5657 5662 5668 5675 5681 5687 5693 5699 5705 5710 5717 5725 5732 5737 5742 5746 5751 5755 5760 5765 5769 5773 5777 5780 5783 5786 5790 5793 5796 5799 5802 5804 5807 5810 5812 5815 5818 5822 5827 5831 5833 5837 5842 5844 5845 5846 5849 5852 5855 5857 5859 5861 5862 5864 5866 5868 5869 5871 5873 5875 5877 5879 5881 5883 5885 5887 5889 5890 5892 5894
5611 5613 5615 5617 5619 5621 5622 5624 5626 5630 5633 5636 5639 5642 5646 5651 5655 5659 5665 5672 5678 5684 5690 5696 5701 5706 5713 5721 5728 5733 5738 5743 5747 5752 5757 5762 5767 5771 5774 5777 5780 5783 5787 5790 5793 5795 5798 5801 5803 5806 5809 5812 5815 5820 5824 5827 5831 5835 5838 5839 5841 5843 5847 5850 5852 5854 5856 5858 5859 5861 5863 5865 5867 5869 5871 5873 5875 5877 5879 5881 5883 5884 5886 5888 5890 5891
5612 5613 5615 5616 5618 5619 5621 5622 5624 5628 5631 5634 5638 5641 5645 5649 5653 5657 5662 5668 5674 5681 5687 5693 5698 5704 5710 5717 5724 5729 5734 5739 5744 5749 5754 5759 5764 5768 5771 5774 5777 5781 5784 5787 5790 5793 5795 5797 5799 5802 5805 5809 5813 5818 5821 5825 5828 5831 5833 5835 5838 5841 5844 5847 5850 5851 5853 5855 5856 5858 5860 5862 5864 5866 5868 5870 5872 5874 5876 5878 5880 5882 5883 5885 5887 5889
5613 5613 5614 5616 5617 5618 5619 5620 5622 5626 5629 5632 5635 5639 5642 5645 5650 5655 5659 5664 5671 5678 5684 5690 5696 5701 5707 5714 5720 5725 5730 5736 5741 5746 5751 5756 5761 5765 5768 5772 5775 5778 5781 5784 5787 5790 5792 5794 5797 5800 5803 5807 5811 5815 5819 5822 5825 5828 5830 5832 5835 5838 5841 5844 5847 5848 5850 5852 5853 5855 5857 5859 5861 5863 5865 5867 5869 5871 5873 5875 5877 5879 5881 5882 5884 5886
5613 5613 5614 5615 5616 5617 5618 5619 5621 5624 5627 5630 5633 5637 5640 5643 5647 5652 5657 5662 5668 5675 5681 5687 5693 5698 5704 5711 5717 5723 5728 5733 5738 5743 5748 5753 5757 5762 5766 5769 5772 5775 5778 5781 5784 5787 5790 5792 5795 5797 5801 5805 5809 5812 5816 5819 5822 5825 5827 5829 5832 5835 5838 5841 5843 5845 5847 5848 5850 5852 5854 5856 5858 5860 5862 5864 5866 5868 5870 5872 5875 5877 5879 5880 5882 5883
5613 5613 5614 5614 5615 5616 5617 5619 5621 5623 5625 5628 5631 5635 5638 5641 5645 5650 5655 5660 5666 5672 5678 5685 5690 5696 5702 5707 5713 5719 5725 5730 5735 5740 5745 5750 5754 5759 5762 5766 5769 5772 5775 5778 5781 5784 5787 5790 5792 5795 5799 5803 5807 5810 5813 5816 5819 5821 5823 5826 5829 5832 5835 5838 5840 5841 5843 5845 5847 5849 5851 5853 5855 5857 5859 5861 5863 5865 5868 5870 5872 5874 5876 5878 5879 5881
5612 5613 5613 5614 5614 5615 5616 5617 5619 5621 5623 5626 5630 5633 5637 5640 5644 5649 5653 5658 5664 5670 5676 5682 5688 5694 5699 5704 5709 5715 5720 5726 5731 5736 5741 5746 5751 5755 5759 5763 5766 5769 5772 5775 5779 5782 5784 5787 5790 5793 5796 5800 5804 5807 5810 5813 5816 5818 5820 5823 5826 5829 5832 5834 5836 5838 5839 5841 5844 5846 5848 5850 5852 5854 5856 5858 5861 5863 5865 5867 5869 5871 5873 5875 5876 5878
5611 5611 5612 5612 5613 5613 5615 5616 5618 5620 5622 5625 5628 5631 5635 5639 5643 5647 5651 5656 5662 5668 5674 5680 5686 5691 5696 5701 5706 5711 5717 5722 5727 5732 5737 5742 5747 5752 5756 5759 5762 5765 5769 5772 5775 5779 5781 5784 5787 5790 5793 5797 5800 5804 5807 5810 5813 5815 5818 5820 5823 5826 5829 5830 5832 5834 5836 5838 5840 5842 5844 5846 5848 5851 5853 5855 5857 5860 5862 5864 5866 5868 5870 5872 5873 5874